Location: Asheville, NC
(35.6000°N, 82.5500°W)
Time: 16:52:52
(UTC-05:00)

Vanguard 3 - Pass Details

Date: 11 February 2018
Orbit: 508 x 3264 km, 33.3° (Epoch: 17 February)

Event Time Altitude Azimuth Distance (km) Brightness Sun altitude
Rises 03:23:14 0° 258° (WSW) 5,354 - -48.4°
Reaches altitude 10° 03:32:42 10° 221° (SW) 5,227 - -46.6°
Maximum altitude 03:34:10 10° 215° (SW) 5,323 - -46.3°
Drops below altitude 10° 03:35:41 10° 210° (SSW) 5,448 - -46.0°
Exits shadow 03:42:18 - 189° (S) 6,218 11.4 -44.7°
Sets 03:48:22 0° 175° (S) 7,098 11.9 -43.5°
